| time (UTC) | temp F | wind direction | speed MPH | gust MPH | rain 1hr in | rain 24hr in | rain mn in | humidity % | barometer mb |
| 20260507162134 | 57 | 309 | 3.0 | 11.0 | 0.00 | 0.21 | 0.00 | 32 | 1017.9 |
| 20260507161634 | 56 | 304 | 3.0 | 11.0 | 0.00 | 0.21 | 0.00 | 31 | 1017.9 |
| 20260507161134 | 56 | 315 | 3.0 | 9.0 | 0.00 | 0.21 | 0.00 | 39 | 1018.0 |
| 20260507160634 | 55 | 313 | 3.0 | 9.0 | 0.00 | 0.22 | 0.00 | 37 | 1018.2 |
| 20260507160136 | 55 | 273 | 3.0 | 10.0 | 0.00 | 0.22 | 0.00 | 40 | 1018.0 |
| 20260507155621 | 54 | 312 | 3.0 | 10.0 | 0.00 | 0.22 | 0.00 | 40 | 1018.2 |
| 20260507155115 | 53 | 303 | 3.0 | 10.0 | 0.00 | 0.22 | 0.00 | 42 | 1018.2 |
| 20260507154617 | 53 | 274 | 5.0 | 12.0 | 0.00 | 0.22 | 0.00 | 41 | 1018.2 |
| 20260507154113 | 52 | 300 | 5.0 | 12.0 | 0.00 | 0.22 | 0.00 | 40 | 1018.0 |
| 20260507153614 | 52 | 311 | 5.0 | 12.0 | 0.00 | 0.22 | 0.00 | 42 | 1018.2 |
| 20260507153114 | 52 | 292 | 5.0 | 11.0 | 0.00 | 0.22 | 0.00 | 45 | 1018.0 |
| 20260507152114 | 51 | 320 | 4.0 | 11.0 | 0.00 | 0.22 | 0.00 | 43 | 1018.3 |
| 20260507151614 | 51 | 315 | 3.0 | 11.0 | 0.00 | 0.22 | 0.00 | 45 | 1018.3 |
| 20260507151109 | 51 | 329 | 4.0 | 11.0 | 0.00 | 0.22 | 0.00 | 47 | 1018.2 |
| 20260507150609 | 50 | 328 | 4.0 | 11.0 | 0.00 | 0.22 | 0.00 | 43 | 1018.2 |
| 20260507150110 | 49 | 301 | 4.0 | 12.0 | 0.00 | 0.22 | 0.00 | 44 | 1018.0 |
| 20260507145610 | 49 | 294 | 4.0 | 12.0 | 0.00 | 0.22 | 0.00 | 46 | 1018.0 |
| 20260507145111 | 49 | 323 | 5.0 | 12.0 | 0.00 | 0.22 | 0.00 | 45 | 1018.0 |
| 20260507143557 | 48 | 298 | 5.0 | 13.0 | 0.00 | 0.22 | 0.00 | 44 | 1018.2 |
| 20260507143059 | 48 | 304 | 3.0 | 10.0 | 0.00 | 0.22 | 0.00 | 45 | 1018.0 |
| 20260507142559 | 47 | 305 | 3.0 | 10.0 | 0.00 | 0.22 | 0.00 | 43 | 1018.0 |
| 20260507141551 | 47 | 323 | 4.0 | 11.0 | 0.00 | 0.22 | 0.00 | 44 | 1017.9 |
| 20260507135549 | 46 | 294 | 5.0 | 10.0 | 0.00 | 0.22 | 0.00 | 42 | 1017.9 |
| 20260507135050 | 46 | 312 | 5.0 | 10.0 | 0.00 | 0.22 | 0.00 | 41 | 1017.9 |
| 20260507134550 | 45 | 318 | 5.0 | 10.0 | 0.00 | 0.22 | 0.00 | 42 | 1018.0 |
| 20260507133550 | 44 | 317 | 5.0 | 9.0 | 0.00 | 0.22 | 0.00 | 43 | 1017.8 |
| 20260507133051 | 44 | 320 | 5.0 | 10.0 | 0.00 | 0.22 | 0.00 | 43 | 1017.7 |
| 20260507132051 | 43 | 314 | 5.0 | 10.0 | 0.00 | 0.22 | 0.00 | 44 | 1017.7 |
| 20260507131537 | 42 | 287 | 5.0 | 10.0 | 0.00 | 0.22 | 0.00 | 44 | 1017.5 |
| 20260507131035 | 42 | 319 | 6.0 | 10.0 | 0.00 | 0.22 | 0.00 | 45 | 1017.5 |
| 20260507130533 | 41 | 316 | 6.0 | 11.0 | 0.00 | 0.22 | 0.00 | 45 | 1017.5 |
| 20260507130034 | 41 | 311 | 5.0 | 11.0 | 0.00 | 0.22 | 0.00 | 45 | 1017.5 |
| 20260507125533 | 40 | 350 | 5.0 | 10.0 | 0.00 | 0.22 | 0.00 | 45 | 1017.5 |
| 20260507125033 | 40 | 306 | 5.0 | 10.0 | 0.00 | 0.22 | 0.00 | 45 | 1017.4 |
| 20260507124033 | 40 | 300 | 5.0 | 11.0 | 0.00 | 0.22 | 0.00 | 45 | 1017.4 |
| 20260507123534 | 39 | 316 | 5.0 | 11.0 | 0.00 | 0.22 | 0.00 | 45 | 1017.3 |
| 20260507122512 | 38 | 302 | 5.0 | 10.0 | 0.00 | 0.22 | 0.00 | 47 | 1017.2 |
| 20260507122011 | 37 | 298 | 4.0 | 9.0 | 0.00 | 0.22 | 0.00 | 47 | 1017.0 |
| 20260507121512 | 36 | 300 | 4.0 | 8.0 | 0.00 | 0.22 | 0.00 | 49 | 1017.2 |
| 20260507121013 | 36 | 313 | 4.0 | 10.0 | 0.00 | 0.22 | 0.00 | 49 | 1017.2 |
| 20260507120512 | 36 | 309 | 4.0 | 10.0 | 0.00 | 0.22 | 0.00 | 49 | 1017.2 |
| 20260507120011 | 35 | 312 | 4.0 | 9.0 | 0.00 | 0.22 | 0.00 | 49 | 1017.0 |
| 20260507115512 | 35 | 348 | 3.0 | 8.0 | 0.00 | 0.22 | 0.00 | 49 | 1017.0 |
| 20260507115012 | 35 | 320 | 2.0 | 8.0 | 0.00 | 0.22 | 0.00 | 49 | 1017.2 |
| 20260507114502 | 35 | 298 | 2.0 | 7.0 | 0.00 | 0.22 | 0.00 | 50 | 1017.2 |
| 20260507113957 | 36 | 309 | 3.0 | 8.0 | 0.00 | 0.22 | 0.00 | 49 | 1017.2 |
| 20260507113457 | 36 | 318 | 3.0 | 9.0 | 0.00 | 0.22 | 0.00 | 48 | 1017.2 |
| 20260507112958 | 36 | 299 | 4.0 | 9.0 | 0.00 | 0.22 | 0.00 | 47 | 1017.2 |
| 20260507112455 | 36 | 326 | 4.0 | 9.0 | 0.00 | 0.22 | 0.00 | 46 | 1017.2 |
| 20260507111956 | 36 | 318 | 5.0 | 10.0 | 0.00 | 0.22 | 0.00 | 46 | 1017.2 |
| 20260507111455 | 36 | 308 | 4.0 | 10.0 | 0.00 | 0.22 | 0.00 | 46 | 1017.3 |
| 20260507110956 | 36 | 326 | 4.0 | 10.0 | 0.00 | 0.22 | 0.00 | 46 | 1017.3 |
| 20260507110457 | 36 | 287 | 4.0 | 10.0 | 0.00 | 0.22 | 0.00 | 46 | 1017.2 |
| 20260507105947 | 36 | 304 | 4.0 | 9.0 | 0.00 | 0.22 | 0.00 | 47 | 1017.2 |
| 20260507105440 | 36 | 298 | 5.0 | 10.0 | 0.00 | 0.22 | 0.00 | 48 | 1017.2 |
| 20260507104933 | 36 | 317 | 5.0 | 10.0 | 0.00 | 0.22 | 0.00 | 47 | 1017.2 |
| 20260507104434 | 36 | 300 | 5.0 | 10.0 | 0.00 | 0.22 | 0.00 | 47 | 1017.2 |
| 20260507103934 | 35 | 331 | 4.0 | 10.0 | 0.00 | 0.22 | 0.00 | 48 | 1017.2 |
| 20260507103433 | 35 | 306 | 4.0 | 9.0 | 0.00 | 0.22 | 0.00 | 49 | 1017.2 |
| 20260507102933 | 35 | 326 | 4.0 | 9.0 | 0.00 | 0.22 | 0.00 | 49 | 1017.2 |
| 20260507102435 | 35 | 313 | 4.0 | 9.0 | 0.00 | 0.22 | 0.00 | 50 | 1017.4 |
| 20260507101933 | 35 | 290 | 4.0 | 10.0 | 0.00 | 0.22 | 0.00 | 51 | 1017.3 |
| 20260507101434 | 34 | 305 | 4.0 | 10.0 | 0.00 | 0.22 | 0.00 | 51 | 1017.5 |
| 20260507100920 | 34 | 314 | 3.0 | 9.0 | 0.00 | 0.22 | 0.00 | 52 | 1017.5 |
| 20260507095904 | 33 | 288 | 3.0 | 8.0 | 0.00 | 0.22 | 0.00 | 54 | 1017.5 |
| 20260507095350 | 33 | 307 | 2.0 | 8.0 | 0.00 | 0.22 | 0.00 | 55 | 1017.4 |
| 20260507094840 | 33 | 305 | 2.0 | 8.0 | 0.00 | 0.22 | 0.00 | 56 | 1017.4 |
| 20260507094335 | 33 | 292 | 2.0 | 8.0 | 0.00 | 0.22 | 0.00 | 57 | 1017.4 |
| 20260507093836 | 33 | 294 | 3.0 | 9.0 | 0.00 | 0.22 | 0.00 | 57 | 1017.4 |
| 20260507093336 | 33 | 308 | 4.0 | 9.0 | 0.00 | 0.22 | 0.00 | 56 | 1017.4 |
| 20260507092336 | 33 | 277 | 3.0 | 9.0 | 0.00 | 0.22 | 0.00 | 58 | 1017.5 |
| 20260507091835 | 33 | 313 | 3.0 | 11.0 | 0.00 | 0.22 | 0.00 | 59 | 1017.5 |
| 20260507091336 | 33 | 332 | 3.0 | 11.0 | 0.00 | 0.22 | 0.00 | 59 | 1017.5 |
| 20260507090822 | 33 | 295 | 3.0 | 10.0 | 0.00 | 0.22 | 0.00 | 59 | 1017.7 |
| 20260507090315 | 33 | 293 | 4.0 | 10.0 | 0.00 | 0.22 | 0.00 | 59 | 1017.7 |
| 20260507085815 | 32 | 299 | 3.0 | 9.0 | 0.00 | 0.22 | 0.00 | 60 | 1017.7 |
| 20260507085316 | 32 | 301 | 4.0 | 8.0 | 0.00 | 0.22 | 0.00 | 62 | 1017.5 |
| 20260507084816 | 31 | 300 | 4.0 | 8.0 | 0.00 | 0.22 | 0.00 | 63 | 1017.7 |
| 20260507083813 | 31 | 313 | 2.0 | 6.0 | 0.00 | 0.22 | 0.00 | 67 | 1017.7 |
| 20260507083312 | 30 | 308 | 2.0 | 6.0 | 0.00 | 0.22 | 0.00 | 69 | 1017.8 |
| 20260507082813 | 30 | 317 | 2.0 | 6.0 | 0.00 | 0.22 | 0.00 | 69 | 1017.7 |
| 20260507082314 | 30 | 315 | 2.0 | 6.0 | 0.00 | 0.22 | 0.00 | 70 | 1017.8 |
| 20260507081804 | 30 | 290 | 2.0 | 6.0 | 0.00 | 0.22 | 0.00 | 72 | 1017.8 |
| 20260507081253 | 30 | 313 | 2.0 | 6.0 | 0.00 | 0.22 | 0.00 | 72 | 1017.8 |
| 20260507080753 | 29 | 290 | 2.0 | 7.0 | 0.00 | 0.22 | 0.00 | 74 | 1017.8 |
| 20260507080253 | 29 | 302 | 2.0 | 7.0 | 0.00 | 0.22 | 0.00 | 76 | 1017.8 |
| 20260507075754 | 29 | 305 | 1.0 | 7.0 | 0.00 | 0.22 | 0.00 | 79 | 1017.8 |
| 20260507075253 | 28 | 300 | 1.0 | 4.0 | 0.00 | 0.22 | 0.00 | 82 | 1017.8 |
| 20260507074753 | 28 | 311 | 1.0 | 4.0 | 0.00 | 0.22 | 0.00 | 84 | 1017.9 |
| 20260507074254 | 28 | 311 | 1.0 | 4.0 | 0.00 | 0.22 | 0.00 | 87 | 1017.9 |
| 20260507073754 | 27 | 308 | 0.0 | 4.0 | 0.00 | 0.22 | 0.00 | 90 | 1017.9 |
| 20260507072730 | 27 | 285 | 0.0 | 2.0 | 0.00 | 0.22 | 0.00 | 93 | 1018.2 |
| 20260507072223 | 26 | 284 | 0.0 | 3.0 | 0.00 | 0.22 | 0.00 | 94 | 1018.2 |
| 20260507071724 | 26 | 284 | 0.0 | 3.0 | 0.00 | 0.22 | 0.00 | 94 | 1018.0 |
| 20260507071224 | 26 | 297 | 0.0 | 5.0 | 0.00 | 0.22 | 0.00 | 94 | 1018.0 |
| 20260507070722 | 26 | 299 | 0.0 | 5.0 | 0.00 | 0.22 | 0.00 | 94 | 1018.2 |
| 20260507070219 | 26 | 296 | 0.0 | 2.0 | 0.00 | 0.22 | 0.00 | 94 | 1018.3 |
| 20260507065720 | 26 | 273 | 0.0 | 0.0 | 0.00 | 0.22 | 0.00 | 94 | 1018.0 |
| 20260507065219 | 26 | 269 | 0.0 | 0.0 | 0.00 | 0.22 | 0.00 | 94 | 1018.2 |
| 20260507064717 | 26 | 269 | 0.0 | 0.0 | 0.00 | 0.22 | 0.00 | 94 | 1018.3 |
| 20260507064215 | 26 | 269 | 0.0 | 0.0 | 0.00 | 0.22 | 0.00 | 94 | 1018.3 |
| 20260507063713 | 26 | 268 | 0.0 | 0.0 | 0.00 | 0.22 | 0.00 | 94 | 1018.4 |
| 20260507063204 | 26 | 269 | 0.0 | 0.0 | 0.00 | 0.22 | 0.00 | 94 | 1018.3 |
| 20260507062702 | 26 | 269 | 0.0 | 0.0 | 0.00 | 0.22 | 0.00 | 94 | 1018.4 |
| 20260507062204 | 26 | 269 | 0.0 | 1.0 | 0.00 | 0.22 | 0.00 | 94 | 1018.4 |
| 20260507061704 | 26 | 269 | 0.0 | 3.0 | 0.00 | 0.22 | 0.00 | 94 | 1018.4 |
| 20260507061203 | 26 | 269 | 0.0 | 3.0 | 0.00 | 0.22 | 0.00 | 94 | 1018.4 |
| 20260507060703 | 26 | 269 | 1.0 | 3.0 | 0.00 | 0.22 | 0.00 | 94 | 1018.4 |
| 20260507060201 | 27 | 268 | 0.0 | 3.0 | 0.00 | 0.22 | 0.00 | 94 | 1018.5 |
| 20260507055654 | 27 | 266 | 0.0 | 3.0 | 0.00 | 0.22 | 0.22 | 94 | 1018.4 |
| 20260507055155 | 27 | 266 | 0.0 | 3.0 | 0.00 | 0.22 | 0.22 | 94 | 1018.3 |
| 20260507054652 | 27 | 267 | 0.0 | 3.0 | 0.00 | 0.22 | 0.22 | 94 | 1018.3 |
| 20260507054151 | 27 | 260 | 0.0 | 3.0 | 0.00 | 0.22 | 0.22 | 94 | 1018.4 |
| 20260507053148 | 27 | 273 | 1.0 | 3.0 | 0.00 | 0.22 | 0.22 | 94 | 1018.3 |
| 20260507052148 | 28 | 258 | 1.0 | 4.0 | 0.00 | 0.22 | 0.22 | 94 | 1018.3 |
| 20260507051644 | 28 | 238 | 1.0 | 4.0 | 0.00 | 0.22 | 0.22 | 94 | 1018.3 |
| 20260507051146 | 28 | 240 | 0.0 | 3.0 | 0.00 | 0.22 | 0.22 | 94 | 1018.3 |
| 20260507050644 | 28 | 247 | 1.0 | 4.0 | 0.00 | 0.22 | 0.22 | 94 | 1018.2 |
| 20260507050144 | 28 | 243 | 1.0 | 5.0 | 0.00 | 0.22 | 0.22 | 94 | 1018.3 |
| 20260507045645 | 28 | 240 | 2.0 | 5.0 | 0.00 | 0.22 | 0.22 | 94 | 1018.3 |
| 20260507045144 | 28 | 236 | 2.0 | 6.0 | 0.00 | 0.22 | 0.22 | 94 | 1018.3 |
| 20260507044646 | 28 | 236 | 3.0 | 7.0 | 0.00 | 0.22 | 0.22 | 94 | 1018.4 |
| 20260507044145 | 28 | 238 | 4.0 | 7.0 | 0.00 | 0.22 | 0.22 | 94 | 1018.3 |
| 20260507043639 | 28 | 234 | 4.0 | 7.0 | 0.00 | 0.22 | 0.22 | 94 | 1018.3 |
| 20260507043134 | 28 | 248 | 5.0 | 10.0 | 0.00 | 0.22 | 0.22 | 94 | 1018.3 |
| 20260507042623 | 28 | 244 | 6.0 | 10.0 | 0.00 | 0.22 | 0.22 | 94 | 1018.3 |
| 20260507042109 | 29 | 217 | 7.0 | 9.0 | 0.00 | 0.22 | 0.22 | 94 | 1018.3 |
| 20260507041608 | 29 | 228 | 7.0 | 10.0 | 0.00 | 0.22 | 0.22 | 94 | 1018.4 |
| 20260507041108 | 29 | 225 | 6.0 | 10.0 | 0.00 | 0.22 | 0.22 | 94 | 1018.3 |
| 20260507040608 | 29 | 233 | 6.0 | 10.0 | 0.00 | 0.22 | 0.22 | 94 | 1018.4 |
| 20260507035608 | 29 | 235 | 6.0 | 12.0 | 0.00 | 0.22 | 0.22 | 94 | 1018.4 |
| 20260507035107 | 29 | 234 | 7.0 | 12.0 | 0.00 | 0.22 | 0.22 | 94 | 1018.3 |
| 20260507034609 | 29 | 242 | 6.0 | 11.0 | 0.00 | 0.22 | 0.22 | 93 | 1018.3 |
| 20260507034056 | 29 | 230 | 5.0 | 10.0 | 0.00 | 0.22 | 0.22 | 93 | 1018.4 |
| 20260507033550 | 29 | 233 | 5.0 | 10.0 | 0.00 | 0.22 | 0.22 | 93 | 1018.4 |
| 20260507033050 | 29 | 236 | 5.0 | 10.0 | 0.00 | 0.22 | 0.22 | 93 | 1018.4 |
| 20260507032550 | 29 | 225 | 4.0 | 9.0 | 0.00 | 0.22 | 0.22 | 93 | 1018.3 |
| 20260507032051 | 29 | 240 | 5.0 | 10.0 | 0.00 | 0.22 | 0.22 | 92 | 1018.3 |
| 20260507031051 | 29 | 234 | 5.0 | 10.0 | 0.00 | 0.22 | 0.22 | 91 | 1018.0 |
| 20260507030551 | 29 | 221 | 5.0 | 8.0 | 0.00 | 0.22 | 0.22 | 90 | 1018.0 |
| 20260507025535 | 30 | 216 | 6.0 | 11.0 | 0.00 | 0.22 | 0.22 | 89 | 1017.9 |
| 20260507025022 | 30 | 225 | 5.0 | 11.0 | 0.00 | 0.22 | 0.22 | 89 | 1017.9 |
| 20260507024518 | 30 | 221 | 6.0 | 9.0 | 0.00 | 0.22 | 0.22 | 88 | 1017.8 |
| 20260507024017 | 30 | 227 | 6.0 | 10.0 | 0.00 | 0.22 | 0.22 | 88 | 1017.8 |
| 20260507023517 | 30 | 214 | 6.0 | 11.0 | 0.00 | 0.22 | 0.22 | 89 | 1017.8 |
| 20260507023015 | 30 | 217 | 6.0 | 11.0 | 0.00 | 0.22 | 0.22 | 88 | 1017.8 |
| 20260507022516 | 30 | 222 | 6.0 | 11.0 | 0.00 | 0.22 | 0.22 | 87 | 1017.7 |
| 20260507022016 | 30 | 224 | 6.0 | 10.0 | 0.00 | 0.22 | 0.22 | 87 | 1017.7 |
| 20260507021517 | 30 | 229 | 6.0 | 10.0 | 0.00 | 0.22 | 0.22 | 87 | 1017.7 |
| 20260507021013 | 30 | 224 | 6.0 | 11.0 | 0.00 | 0.22 | 0.22 | 87 | 1017.7 |
| 20260507020514 | 30 | 218 | 6.0 | 11.0 | 0.00 | 0.22 | 0.22 | 87 | 1017.5 |
| 20260507020014 | 30 | 202 | 6.0 | 10.0 | 0.00 | 0.22 | 0.22 | 87 | 1017.5 |
| 20260507015515 | 30 | 207 | 5.0 | 9.0 | 0.00 | 0.22 | 0.22 | 86 | 1017.7 |
| 20260507015015 | 31 | 219 | 6.0 | 11.0 | 0.00 | 0.22 | 0.22 | 86 | 1017.5 |
| 20260507014515 | 31 | 227 | 6.0 | 11.0 | 0.00 | 0.22 | 0.22 | 84 | 1017.5 |
| 20260507014015 | 31 | 237 | 6.0 | 11.0 | 0.00 | 0.22 | 0.22 | 83 | 1017.5 |
| 20260507013514 | 31 | 238 | 7.0 | 12.0 | 0.00 | 0.22 | 0.22 | 81 | 1017.5 |
| 20260507012450 | 32 | 215 | 7.0 | 14.0 | 0.00 | 0.22 | 0.22 | 81 | 1017.4 |
| 20260507011951 | 32 | 211 | 8.0 | 14.0 | 0.00 | 0.22 | 0.22 | 81 | 1017.4 |
| 20260507011449 | 32 | 221 | 8.0 | 12.0 | 0.00 | 0.22 | 0.22 | 80 | 1017.4 |
| 20260507010950 | 32 | 236 | 8.0 | 13.0 | 0.00 | 0.22 | 0.22 | 81 | 1017.4 |
| 20260507010450 | 33 | 234 | 8.0 | 13.0 | 0.00 | 0.23 | 0.22 | 81 | 1017.4 |
| 20260507005950 | 33 | 217 | 7.0 | 14.0 | 0.00 | 0.23 | 0.22 | 80 | 1017.3 |
| 20260507005449 | 33 | 224 | 6.0 | 14.0 | 0.00 | 0.23 | 0.22 | 80 | 1017.3 |
| 20260507004951 | 32 | 237 | 5.0 | 9.0 | 0.00 | 0.23 | 0.22 | 78 | 1017.3 |
| 20260507004450 | 32 | 249 | 4.0 | 8.0 | 0.00 | 0.23 | 0.22 | 76 | 1017.3 |
| 20260507003950 | 32 | 227 | 4.0 | 7.0 | 0.00 | 0.23 | 0.22 | 78 | 1017.3 |
| 20260507003451 | 32 | 212 | 5.0 | 9.0 | 0.00 | 0.23 | 0.22 | 75 | 1017.3 |
| 20260507002441 | 33 | 235 | 5.0 | 9.0 | 0.00 | 0.23 | 0.22 | 76 | 1017.3 |
| 20260507001939 | 32 | 228 | 5.0 | 9.0 | 0.00 | 0.23 | 0.22 | 77 | 1017.3 |
| 20260507001440 | 33 | 240 | 5.0 | 9.0 | 0.00 | 0.23 | 0.22 | 76 | 1017.3 |
| 20260507000940 | 33 | 242 | 4.0 | 7.0 | 0.00 | 0.23 | 0.22 | 77 | 1017.3 |
| 20260507000442 | 33 | 215 | 4.0 | 8.0 | 0.14 | 0.23 | 0.22 | 75 | 1017.3 |
| 20260506235434 | 33 | 255 | 2.0 | 7.0 | 0.14 | 0.24 | 0.22 | 74 | 1017.2 |
| 20260506234935 | 33 | 237 | 2.0 | 7.0 | 0.14 | 0.24 | 0.22 | 74 | 1017.2 |
| 20260506234434 | 33 | 240 | 3.0 | 7.0 | 0.14 | 0.24 | 0.22 | 75 | 1017.2 |
| 20260506233435 | 33 | 234 | 3.0 | 7.0 | 0.15 | 0.24 | 0.22 | 74 | 1017.2 |
| 20260506232934 | 34 | 209 | 2.0 | 7.0 | 0.15 | 0.24 | 0.22 | 77 | 1017.3 |
| 20260506231934 | 34 | 240 | 0.0 | 7.0 | 0.15 | 0.24 | 0.22 | 74 | 1017.2 |
| 20260506231433 | 34 | 279 | 0.0 | 4.0 | 0.15 | 0.24 | 0.22 | 76 | 1017.2 |
| 20260506230933 | 34 | 317 | 0.0 | 4.0 | 0.15 | 0.24 | 0.22 | 76 | 1017.2 |
| 20260506230434 | 33 | 318 | 0.0 | 4.0 | 0.01 | 0.11 | 0.08 | 76 | 1017.2 |
| 20260506224859 | 34 | 327 | 0.0 | 0.0 | 0.01 | 0.11 | 0.08 | 81 | 1017.0 |
| 20260506224401 | 34 | 327 | 0.0 | 4.0 | 0.01 | 0.11 | 0.08 | 80 | 1017.2 |
| 20260506223859 | 35 | 333 | 0.0 | 4.0 | 0.00 | 0.10 | 0.08 | 82 | 1017.2 |
| 20260506222900 | 33 | 336 | 1.0 | 6.0 | 0.00 | 0.10 | 0.07 | 82 | 1017.3 |
| 20260506221901 | 33 | 5 | 2.0 | 9.0 | 0.00 | 0.10 | 0.07 | 82 | 1017.4 |
| 20260506221401 | 33 | 9 | 3.0 | 9.0 | 0.00 | 0.10 | 0.07 | 83 | 1017.3 |
| 20260506220854 | 33 | 0 | 4.0 | 9.0 | 0.01 | 0.10 | 0.07 | 85 | 1017.3 |
| 20260506220355 | 32 | 24 | 4.0 | 9.0 | 0.01 | 0.11 | 0.07 | 85 | 1017.3 |
| 20260506215353 | 33 | 9 | 5.0 | 11.0 | 0.01 | 0.11 | 0.07 | 84 | 1017.3 |
| 20260506214851 | 32 | 5 | 6.0 | 11.0 | 0.01 | 0.11 | 0.07 | 86 | 1017.3 |
| 20260506214352 | 32 | 355 | 8.0 | 14.0 | 0.01 | 0.11 | 0.07 | 86 | 1017.4 |
| 20260506213853 | 31 | 27 | 8.0 | 14.0 | 0.01 | 0.11 | 0.07 | 85 | 1017.4 |
| 20260506213349 | 31 | 24 | 7.0 | 13.0 | 0.01 | 0.11 | 0.07 | 83 | 1017.4 |
| 20260506212347 | 31 | 24 | 8.0 | 13.0 | 0.01 | 0.11 | 0.07 | 85 | 1017.7 |
| 20260506211347 | 31 | 20 | 7.0 | 13.0 | 0.01 | 0.11 | 0.07 | 85 | 1017.5 |
| 20260506210847 | 31 | 13 | 5.0 | 13.0 | 0.00 | 0.10 | 0.06 | 88 | 1017.5 |
| 20260506210349 | 29 | 15 | 7.0 | 15.0 | 0.01 | 0.10 | 0.06 | 87 | 1017.4 |
| 20260506205849 | 30 | 69 | 9.0 | 15.0 | 0.01 | 0.10 | 0.06 | 85 | 1017.4 |
| 20260506204824 | 29 | 50 | 7.0 | 13.0 | 0.01 | 0.10 | 0.06 | 86 | 1017.4 |
| 20260506204311 | 30 | 69 | 8.0 | 14.0 | 0.01 | 0.10 | 0.06 | 85 | 1017.5 |
| 20260506203811 | 30 | 45 | 7.0 | 14.0 | 0.01 | 0.10 | 0.06 | 87 | 1017.5 |
| 20260506202813 | 29 | 38 | 6.0 | 11.0 | 0.01 | 0.10 | 0.06 | 88 | 1017.7 |
| 20260506201812 | 29 | 58 | 8.0 | 14.0 | 0.02 | 0.10 | 0.06 | 86 | 1017.7 |
| 20260506201313 | 29 | 59 | 8.0 | 14.0 | 0.02 | 0.10 | 0.06 | 87 | 1017.5 |
| 20260506200813 | 29 | 32 | 8.0 | 12.0 | 0.01 | 0.09 | 0.06 | 86 | 1017.5 |
| 20260506200312 | 30 | 24 | 9.0 | 15.0 | 0.01 | 0.09 | 0.05 | 86 | 1017.4 |
| 20260506195801 | 29 | 9 | 9.0 | 14.0 | 0.02 | 0.09 | 0.05 | 86 | 1017.4 |
| 20260506195258 | 29 | 39 | 8.0 | 14.0 | 0.02 | 0.09 | 0.05 | 87 | 1017.4 |
| 20260506194257 | 29 | 44 | 8.0 | 13.0 | 0.02 | 0.10 | 0.05 | 88 | 1017.3 |
| 20260506193754 | 29 | 47 | 8.0 | 13.0 | 0.02 | 0.10 | 0.05 | 88 | 1017.3 |
| 20260506192255 | 29 | 48 | 8.0 | 14.0 | 0.03 | 0.10 | 0.05 | 87 | 1017.2 |
| 20260506191755 | 29 | 54 | 8.0 | 14.0 | 0.02 | 0.09 | 0.05 | 87 | 1017.3 |
| 20260506191254 | 29 | 34 | 9.0 | 14.0 | 0.02 | 0.09 | 0.04 | 86 | 1017.3 |
| 20260506190754 | 29 | 34 | 9.0 | 14.0 | 0.02 | 0.09 | 0.04 | 88 | 1017.2 |
| 20260506190254 | 29 | 36 | 10.0 | 14.0 | 0.02 | 0.09 | 0.04 | 87 | 1017.2 |
| 20260506185755 | 29 | 42 | 9.0 | 15.0 | 0.02 | 0.08 | 0.03 | 88 | 1017.2 |
| 20260506185254 | 29 | 34 | 8.0 | 15.0 | 0.02 | 0.08 | 0.03 | 89 | 1017.3 |
| 20260506184755 | 29 | 20 | 6.0 | 12.0 | 0.02 | 0.08 | 0.03 | 90 | 1017.3 |
| 20260506184256 | 28 | 48 | 6.0 | 10.0 | 0.02 | 0.08 | 0.03 | 89 | 1017.2 |
| 20260506183746 | 28 | 17 | 7.0 | 12.0 | 0.02 | 0.08 | 0.03 | 89 | 1017.3 |
| 20260506182739 | 28 | 25 | 6.0 | 11.0 | 0.02 | 0.08 | 0.03 | 89 | 1017.4 |
| 20260506182239 | 28 | 32 | 7.0 | 11.0 | 0.01 | 0.07 | 0.02 | 90 | 1017.4 |
| 20260506181739 | 28 | 36 | 5.0 | 12.0 | 0.01 | 0.08 | 0.02 | 90 | 1017.4 |
| 20260506181239 | 28 | 34 | 4.0 | 12.0 | 0.01 | 0.08 | 0.02 | 91 | 1017.5 |
| 20260506180739 | 28 | 35 | 5.0 | 9.0 | 0.01 | 0.08 | 0.02 | 91 | 1017.5 |
| 20260506175238 | 27 | 42 | 5.0 | 11.0 | 0.00 | 0.07 | 0.01 | 91 | 1017.4 |
| 20260506174738 | 27 | 35 | 5.0 | 11.0 | 0.00 | 0.07 | 0.01 | 91 | 1017.3 |
| 20260506174239 | 27 | 51 | 3.0 | 7.0 | 0.00 | 0.07 | 0.01 | 91 | 1017.3 |
| 20260506173740 | 27 | 44 | 2.0 | 7.0 | 0.00 | 0.08 | 0.01 | 92 | 1017.4 |
| 20260506173239 | 27 | 30 | 1.0 | 6.0 | 0.00 | 0.08 | 0.01 | 92 | 1017.3 |
| 20260506172739 | 26 | 46 | 1.0 | 8.0 | 0.00 | 0.08 | 0.01 | 92 | 1017.2 |
| 20260506172240 | 26 | 49 | 2.0 | 8.0 | 0.00 | 0.09 | 0.01 | 91 | 1016.9 |
| 20260506171739 | 27 | 46 | 3.0 | 8.0 | 0.00 | 0.09 | 0.01 | 92 | 1016.9 |
| 20260506171240 | 26 | 40 | 3.0 | 8.0 | 0.00 | 0.09 | 0.01 | 92 | 1017.0 |
| 20260506170739 | 27 | 17 | 4.0 | 8.0 | 0.01 | 0.09 | 0.01 | 92 | 1017.3 |
| 20260506170239 | 27 | 14 | 5.0 | 8.0 | 0.01 | 0.10 | 0.01 | 92 | 1017.3 |
| 20260506165739 | 26 | 30 | 6.0 | 11.0 | 0.01 | 0.10 | 0.01 | 92 | 1017.3 |
| 20260506165241 | 26 | 19 | 6.0 | 11.0 | 0.01 | 0.10 | 0.01 | 91 | 1017.2 |
| 20260506164740 | 26 | 13 | 6.0 | 11.0 | 0.01 | 0.11 | 0.01 | 92 | 1017.0 |
| 20260506163733 | 26 | 24 | 8.0 | 13.0 | 0.01 | 0.12 | 0.01 | 91 | 1016.9 |
| 20260506163233 | 26 | 10 | 7.0 | 11.0 | 0.01 | 0.12 | 0.01 | 91 | 1016.8 |
| 20260506162733 | 26 | 29 | 7.0 | 10.0 | 0.01 | 0.12 | 0.01 | 91 | 1016.8 |